Weather in Svesa

Ukraine / Sumi District     51°57′12″N   33°56′08″E
temp.,
°C
wind,
m/s
gust,
m/s
humid.,
%
clouds,
%
prec.,
mm/h
press.,
hPa
HPBL,
m
21 october, thu
thu2100:00+9ssw91971100 0.4 1014631
03:00+10sw81869100 0.4 1012541
06:00+9sw81774100 0.1 1011451
09:00+10sw91970100 0.1 1010539
12:00+14sw8166192 0.0 1009687
15:00+15ssw8156099 0.0 1007712
18:00+12ssw9186375 0.0 1006625
21:00+13ssw91957100 0.0 1004703
22 october, fri
fri2200:00+12ssw91756100 0.0 1003615
03:00+12sw81557100 0.0 1003596
06:00+11sw71564100 0.0 1004712
09:00+12wsw8137135 0.0 1005952
12:00+13wsw9145922 0.0 10081487
15:00+14wsw713505 0.0 10081990
18:00+10wsw511525 0.0 1010323
21:00+8wsw4106317 0.0 1011234
23 october, sat
sat2300:00+8sw6134968 0.0 1010426
03:00+8wsw714692 0.0 1010613
06:00+7sw613795 0.0 1010442
09:00+7wsw712635 0.0 1010916
12:00+9wsw9135299 0.0 10111852
15:00+8w8126373 0.7 10131664
18:00+6wsw5126482 0.1 1014420
21:00+5w612765 0.1 1016606
24 october, sun
sun2400:00+3wsw512845 0.0 1017389
03:00+2wsw5118914 0.0 1017400
06:00+4w61084100 0.0 1017660
09:00+4wnw7108289 0.2 1018933
12:00+4wnw71184100 0.4 10191001
15:00+3nw71182100 0.8 10191038
18:00+2nw71395100 0.4 1021862
21:00+2nnw7127554 0.6 1023973
25 october, mon
mon2500:000nnw6128480 0.0 1025652
03:00+1nnw6107987 0.0 1027892
06:00−2nnw510925 0.0 1030304
09:00−1n478510 0.0 1032313
12:00+3nne455842 0.0 1033997
15:00+4nne45505 0.0 10331074
18:00+1nne22662 0.0 103514
21:00−1e22720 0.0 103515